Regional Weather Roundup
Issued by NWS

Home | Current Version | Previous Version | Graphics & Text | Print | Product List | Glossary On
Versions: 1 2 3 4 5 6 7 8 9 10 11 12 13 14 15 16 17 18 19 20 21 22 23 24 25 26 27 28 29 30 31 32 33 34 35 36 37 38 39 40 41 42 43 44 45 46 47 48 49 50
000
ASUS43 KLOT 301108
RWRIL

ILLINOIS REGIONAL WEATHER ROUNDUP
NATIONAL WEATHER SERVICE CHICAGO/ROMEOVILLE IL
600 AM CDT THU MAR 30 2017

NOTE: "FAIR" INDICATES FEW OR NO CLOUDS BELOW 12,000 FEET WITH NO
SIGNIFICANT WEATHER AND/OR OBSTRUCTIONS TO VISIBILITY.

* THESE STATIONS ARE NOT UNDER NWS QUALITY CONTROL. THEY ALSO MAY NOT
  REPORT WEATHER SUCH AS PRECIPITATION OR FOG.

ILZ001-002-007-009-015-016-024-301200-
NORTHWEST ILLINOIS

CITY           SKY/WX    TMP DP  RH WIND       PRES   REMARKS
MOLINE         TSTM      45  41  86 E18G28    29.69F
STERLING*      LGT RAIN  43  41  93 E18       29.75
SAVANNA*       LGT RAIN  42  40  95 E23       29.74F
$$

ILZ003-004-008-010-011-017-018-301200-
NORTH CENTRAL ILLINOIS

CITY           SKY/WX    TMP DP  RH WIND       PRES   REMARKS
ROCKFORD       LGT RAIN  41  38  89 E14G22    29.82F
FREEPORT*      LGT RAIN  39  38  97 E17       29.80F WCI  30
ROCHELLE*      RAIN      41  40  97 E17G24    29.78F
DE KALB*       LGT RAIN  41  40  97 E18G26    29.80F
PERU*          CLOUDY    43  40  89 E21       29.76F
$$

ILZ005-006-012>014-019>023-301200-
NORTHEAST ILLINOIS

CITY           SKY/WX    TMP DP  RH WIND       PRES   REMARKS
CHICAGO-OHARE  RAIN      42  39  89 E17       29.85F FOG
CHICAGO-MIDWAY LGT RAIN  43  40  89 E18G36    29.85F
AURORA         LGT RAIN  44  41  89 E17       29.78F
LANSING*       RAIN      42  41  95 E13       29.85F
JOLIET*        RAIN      44  42  94 E14G21    29.81F
WAUKEGAN       LGT RAIN  38  38 100 E15       29.88F FOG     WCI  29
DUPAGE AIRPORT RAIN      42  42 100 E21G31    29.80F FOG
KANKAKEE*      RAIN      44  42  94 E16       29.82S
WHEELING       LGT RAIN  39  39 100 E9        29.88F FOG     WCI  33
MORRIS*        LGT RAIN  43  41  92 E13G25    29.79S
ROMEOVILLE*    RAIN      42  42 100 E21       29.80F
NORTHERLY ISL    N/A     41  38  89 E29         N/A
$$

LMZ740>746-301200-
SOUTHERN LAKE MICHIGAN

STATION/POSITION SKY/WX   TEMP    WIND        PRES    VSBY  WAVE
                          AIR SEA DIR/SP/G                  HT/PER
                          (F)     (DEG/KT/KT) (MB)    (MI)  (FT/S)
HARRISON CRIB              41     100/ 28/ 31   N/A
BURNHAM HARBOR             41      70/ 17/ 25   N/A
CALUMET HARBOR             40      60/ 14/ 16 1010.8F
BURNS HARBOR               43     100/ 15/ 23 1010.8F
MICHIGAN CITY              42      90/ 20/ 24   N/A
$$

ILZ025>027-034>036-040-047-049-050-058-095>099-301200-
WEST-CENTRAL ILLINOIS

CITY           SKY/WX    TMP DP  RH WIND       PRES   REMARKS
QUINCY         LGT RAIN  52  51  97 E8        29.60S FOG
GALESBURG*     CLOUDY    44  42  95 E15G28    29.64F
MACOMB*        TSTM      45  45  98 E17       29.66F
JACKSONVILLE*  CLOUDY    53  52  96 E10       29.62F FOG
PITTSFIELD*    CLOUDY    55  55  97 NE6       29.62F FOG
$$

ILZ028>032-037-038-041>044-048-051>054-059>061-301200-
CENTRAL ILLINOIS

CITY           SKY/WX    TMP DP  RH WIND       PRES   REMARKS
PONTIAC        LGT RAIN  45  44  97 E24       29.73F
BLOOMINGTON    CLOUDY    47  46  97 E17       29.71R
DECATUR        MOCLDY    51  49  92 E15       29.67F
PEORIA         LGT RAIN  45  44  97 E17G23    29.69F
LACON*         LGT RAIN  43  42  97 E17G24    29.71F
LINCOLN*       CLOUDY    50  50  99 E10       29.66F
SPRINGFIELD    CLOUDY    53  53 100 E7        29.64F FOG
TAYLORVILLE    MOCLDY    54  52  94 SE12      29.66R
$$

ILZ033-039-045-046-055>057-062-063-301200-
EAST-CENTRAL ILLINOIS

CITY           SKY/WX    TMP DP  RH WIND       PRES   REMARKS
CHAMPAIGN      CLOUDY    49  46  90 NE17      29.71F
RANTOUL*       LGT RAIN  48  47  95 E16       29.74F
MATTOON        CLOUDY    55  55 100 SE12      29.67S
PARIS*         TSTM      52  51  95 SE9       29.73F
$$

ILZ079-100>102-301200-
SOUTHWEST ILLINOIS

CITY           SKY/WX    TMP DP  RH WIND       PRES   REMARKS
ALTON          CLOUDY    55  55  97 N5        29.62S
BELLEVILLE     MOCLDY    58  58 100 E6        29.60F
CAHOKIA*       CLOUDY    60  56  86 CALM      29.61R
SPARTA*        CLOUDY    62  58  86 S7        29.63S
$$

ILZ064>066-069>071-074>076-080>082-084>086-088>090-092>094-301200-
SOUTH-CENTRAL ILLINOIS

CITY           SKY/WX    TMP DP  RH WIND       PRES   REMARKS
CARBONDALE     CLOUDY    66  59  78 S16G24    29.65S
CAIRO*         LGT RAIN  66  59  77 S9        29.69R
EFFINGHAM*     CLOUDY    58  58  99 E12       29.69R
MARION         CLOUDY    68  61  77 S15G21    29.67R
MT. VERNON     CLOUDY    60  57  89 SE3       29.67R
CENTRALIA*     CLOUDY    60  59  97 CALM      29.65S
SALEM*         CLOUDY    61  58  89 E6        29.65S
METROPOLIS*    CLOUDY    70  56  62 S12G17    29.70S
$$

ILZ067-068-072-073-078-083-087-091-301200-
SOUTHEAST ILLINOIS

CITY           SKY/WX    TMP DP  RH WIND       PRES   REMARKS
LAWRENCEVILLE  CLOUDY    56  54  93 E8        29.72F
FLORA*         CLOUDY    58  56  91 E6        29.68R
FAIRFIELD*     CLOUDY    60  57  90 SE5       29.67S
HARRISBURG*    CLOUDY    66  58  77 S10       29.68S
ROBINSON*      CLOUDY    54  52  94 E7        29.73F
CARMI*         CLOUDY    60  57  88 SE10      29.69S
$$

ABBREVIATIONS USED IN REMARKS
   TC - TEMPERATURE IN CELSIUS
  WCI - WIND CHILL INDEX
   HX - HEAT INDEX
  VSB - VISIBILITY
$$




USA.gov is the U.S. government's official web portal to all federal, state and local government web resources and services.